アトラス彗星

C/2019 JU6 ( ATLAS )

English version
Home page
Updated on April 4, 2021

---------------------------------------------------------------------

・ プロフィール

発見日 2019年5月12日、21日
発見光度 18.8等
発見者 Asteroid Terrestrial-Impact Last Alert System (ATLAS) search program, Pan-STARRS 2 telescope (Haleakala)

・ 写真集

・ 軌道要素

Epoch 2019 June 6.0 TT = JDT 2458640.5                                          
T 2019 May 31.87874 TT                                  Rudenko                 
q   2.0447806            (2000.0)            P               Q                  
z  +0.0034022      Peri.   94.87016     +0.23504657     -0.95230699             
 +/-0.0008306      Node    21.73387     -0.95960234     -0.25920735             
e   0.9930432      Incl.  148.29855     +0.15464948     -0.16100601             
From 71 observations 2019 May 12-June 4, mean residual 0".5.                    

・ 光度変化

        m1 = 14.0 + 5 logΔ + 10.0 log r

---------------------------------------------------------------------

軌道要素はM.P.E.C. 2021-F20に掲載されたものです。
光度グラフはComet for Windowsで作成したものです。

---------------------------------------------------------------------

Copyright(C) Seiichi Yoshida (comet@aerith.net). All rights reserved.